星链-30865 (STARLINK-30865 )

导读 | 豆包AI

STARLINK-30865是美国太空探索技术公司SpaceX星链互联网卫星星座中的一员,于2023年11月3日发射升空,归属Starlink Group组群,星链星座通过批量发射低轨卫星组网,旨在为全球提供高速卫星互联网接入服务,该卫星后续将在近地轨道运行,为星链网络覆盖能力提供支撑。

Basic Information
目录编号:
58226
目录名称:
STARLINK-30865
国际标识:
2023-170W
轨道中心:
EARTH
卫星名称:
星链-30865
卫星全名:
星链-30865 (STARLINK-30865 )
卫星状态:
在轨 (已飞行909 天)
发射日期:
2023-11-03 UTC
国别 :
美国 (US)
星等 :
--
Orbit Information
数据来源 国际轨道数据 AOE轨道数据
星历时间 2026-04-30T22:54:52+0800
6小时前
查看轨道信息
2026-04-28T01:00:00+0800
3天前
查看轨道信息
半长轴 6861.178km 6861.152km
偏心率 0.0001448 0.0002062
轨道倾角 43.003° 42.995°
近地点辐角 262.695° 251.318°
升交点赤经 249.728° 266.179°
平近点角 97.374° 270.008°
近地点 482.047km 481.6km
远地点 484.035km 484.43km
周期 94.267分钟 94.266分钟
每日圈数 15.275828 15.275917
Detailed Information
固有亮度:
5
最大亮度:
0.3
卫星平台:
Starlink v2.0 mini
覆盖范围:
全球
运营商:
太空探索技术公司
运营商所在国:
美国
制造商(研发单位):
太空探索技术公司
制造商所在国:
美国
使用方式:
暂无
Satellite Introduction
星链(Starlink)计划是由太空探索技术公司(SpaceX)提出的一个巨型低轨卫星互联网星座项目,计划在2019年至2024年间在太空搭建由约1.2万颗卫星组成的“星链”网络,其中1584颗将部署在地球上空550千米处的近地轨道,并从2020年开始工作。该卫星仍在工作。
2D Orbit Map
3D Orbit Map
Orbit Altitude Analysis Chart
Orbit Inclination Analysis Chart
Orbit Comprehensive Analysis Chart
View Comprehensive Chart